OE3XAM-13 Weather Reports


time (UTC)temp
C
wind
direction
speed
KPH
gust
KPH
rain 1hr
cm
rain 24hr
cm
rain mn
cm
humidity
%
barometer
mb
20260505151128 28 0 6.4 0.0 0.00 0.00 0.00 23 968.0
20260505124128 28 0 0.0 0.0 0.00 0.00 0.00 24 970.0
20260505121128 28 0 0.0 0.0 0.00 0.00 0.00 24 970.0
20260505114128 27 0 9.7 0.0 0.00 0.00 0.00 26 971.0
20260505111128 27 0 3.2 0.0 0.00 0.00 0.00 29 970.0
20260505101128 26 0 6.4 0.0 0.00 0.00 0.00 33 971.0
20260505094128 25 0 1.6 0.0 0.00 0.00 0.00 35 972.0
20260505091128 23 0 0.0 0.0 0.00 0.00 0.00 37 972.0
20260505084128 22 0 3.2 0.0 0.00 0.00 0.00 41 972.0
20260505081128 21 0 0.0 0.0 0.00 0.00 0.00 45 973.0
20260505074128 19 0 0.0 0.0 0.00 0.00 0.00 50 973.0
20260505071128 17 0 0.0 0.0 0.00 0.00 0.00 59 972.0
20260505064128 15 0 0.0 0.0 0.00 0.00 0.00 68 973.0
20260505061128 13 0 0.0 0.0 0.00 0.00 0.00 73 973.0
20260505054128 11 0 1.6 0.0 0.00 0.00 0.00 78 973.0
20260505051128 10 0 1.6 0.0 0.00 0.00 0.00 78 973.0
20260505041128 10 0 0.0 0.0 0.00 0.00 0.00 77 973.0
20260505034128 10 0 3.2 0.0 0.00 0.00 0.00 77 973.0
20260505031128 10 0 1.6 0.0 0.00 0.00 0.00 75 973.0
20260505024128 11 0 4.8 0.0 0.00 0.00 0.00 74 974.0
20260505021128 11 0 3.2 0.0 0.00 0.00 0.00 73 973.0
20260505014128 12 0 1.6 0.0 0.00 0.00 0.00 71 973.0
20260505011128 12 0 1.6 0.0 0.00 0.00 0.00 69 973.0
20260505004128 13 0 1.6 0.0 0.00 0.00 0.00 66 973.0
20260505001128 13 0 0.0 0.0 0.00 0.00 0.00 64 974.0
20260504234128 13 0 1.6 0.0 0.00 0.00 0.00 61 974.0
20260504231128 13 0 3.2 0.0 0.00 0.00 0.00 59 974.0
20260504224128 13 0 0.0 0.0 0.00 0.00 0.00 59 974.0
20260504221128 14 0 0.0 0.0 0.00 0.00 0.00 56 975.0
20260504214128 15 0 4.8 0.0 0.00 0.00 0.00 54 974.0
20260504211128 16 0 1.6 0.0 0.00 0.00 0.00 51 974.0
20260504204128 16 0 1.6 0.0 0.00 0.00 0.00 49 974.0
20260504201128 16 0 0.0 0.0 0.00 0.00 0.00 48 974.0
20260504194128 17 0 0.0 0.0 0.00 0.00 0.00 46 974.0
20260504191128 18 0 1.6 0.0 0.00 0.00 0.00 43 974.0
20260504184128 19 0 0.0 0.0 0.00 0.00 0.00 40 973.0
20260504181128 21 0 0.0 0.0 0.00 0.00 0.00 37 974.0
20260504174128 22 0 0.0 0.0 0.00 0.00 0.00 34 974.0
20260504171128 24 0 0.0 0.0 0.00 0.00 0.00 30 974.0